"Period start","avg(HW err(1)/warn(2) (#))","avg(Visibility (m))","avg(Weather code (#))","avg(Precip intensity (mm/h))","min(HW err(1)/warn(2) (#))","max(HW err(1)/warn(2) (#))","std(HW err(1)/warn(2) (#))","med(HW err(1)/warn(2) (#))","min(Visibility (m))","max(Visibility (m))","std(Visibility (m))","med(Visibility (m))","min(Weather code (#))","max(Weather code (#))","std(Weather code (#))","med(Weather code (#))","min(Precip intensity (mm/h))","max(Precip intensity (mm/h))","std(Precip intensity (mm/h))","med(Precip intensity (mm/h))"
2014-06-06 00:00:00,2,45249,0,0.00,2,2,0,2,36661,50000,4894,47007,0,0,0,0,0.00,0.00,0.00,0.00
2014-06-06 00:10:00,2,40054,0,0.00,2,2,0,2,30356,50000,7147,38659,0,0,0,0,0.00,0.00,0.00,0.00
2014-06-06 00:20:00,2,37790,0,0.00,2,2,0,2,22358,50000,8755,37850,0,0,0,0,0.00,0.00,0.00,0.00
2014-06-06 00:30:00,2,44516,0,0.00,2,2,0,2,38957,48663,3442,44830,0,0,0,0,0.00,0.00,0.00,0.00
2014-06-06 00:40:00,2,42024,0,0.00,2,2,0,2,31461,48924,5680,42435,0,0,0,0,0.00,0.00,0.00,0.00
2014-06-06 00:50:00,2,46905,0,0.00,2,2,0,2,31031,50000,5542,49648,0,0,0,0,0.00,0.00,0.00,0.00
2014-06-06 01:00:00,2,44200,0,0.00,2,2,0,2,32920,50000,5461,44167,0,0,0,0,0.00,0.00,0.00,0.00
2014-06-06 01:10:00,2,45921,0,0.00,2,2,0,2,36714,50000,5257,50000,0,0,0,0,0.00,0.00,0.00,0.00
2014-06-06 01:20:00,2,36514,0,0.00,2,2,0,2,31474,50000,5368,34328,0,0,0,0,0.00,0.00,0.00,0.00
2014-06-06 01:30:00,2,46834,0,0.00,2,2,0,2,35889,50000,5279,49724,0,0,0,0,0.00,0.00,0.00,0.00
2014-06-06 01:40:00,2,45231,0,0.00,2,2,0,2,29451,50000,6186,47628,0,0,0,0,0.00,0.00,0.00,0.00
2014-06-06 01:50:00,2,41638,0,0.00,2,2,0,2,32084,50000,6188,42090,0,0,0,0,0.00,0.00,0.00,0.00
2014-06-06 02:00:00,2,47808,0,0.00,2,2,0,2,34892,50000,4469,49888,0,0,0,0,0.00,0.00,0.00,0.00
2014-06-06 02:10:00,2,45314,0,0.00,2,2,0,2,36030,50000,5343,47636,0,0,0,0,0.00,0.00,0.00,0.00
2014-06-06 02:20:00,2,44168,0,0.00,2,2,0,2,28402,50000,6256,45262,0,0,0,0,0.00,0.00,0.00,0.00
2014-06-06 02:30:00,2,46258,0,0.00,2,2,0,2,33211,50000,5115,48559,0,0,0,0,0.00,0.00,0.00,0.00
2014-06-06 02:40:00,2,45621,0,0.00,2,2,0,2,31398,50000,5661,46636,0,0,0,0,0.00,0.00,0.00,0.00
2014-06-06 02:50:00,2,38270,0,0.00,2,2,0,2,29446,50000,7749,35490,0,0,0,0,0.00,0.00,0.00,0.00
2014-06-06 03:00:00,2,46376,0,0.00,2,2,0,2,38587,50000,4175,47959,0,0,0,0,0.00,0.00,0.00,0.00
2014-06-06 03:10:00,2,49367,0,0.00,2,2,0,2,45891,50000,1334,50000,0,0,0,0,0.00,0.00,0.00,0.00
2014-06-06 03:20:00,2,46179,0,0.00,2,2,0,2,41330,50000,3582,46632,0,0,0,0,0.00,0.00,0.00,0.00
2014-06-06 03:30:00,2,46158,0,0.00,2,2,0,2,38097,50000,3661,45780,0,0,0,0,0.00,0.00,0.00,0.00
2014-06-06 03:40:00,2,40250,0,0.00,2,2,0,2,27155,48892,6656,41505,0,0,0,0,0.00,0.00,0.00,0.00
2014-06-06 03:50:00,2,44065,0,0.00,2,2,0,2,34515,50000,5030,45590,0,0,0,0,0.00,0.00,0.00,0.00
2014-06-06 04:00:00,2,46464,0,0.00,2,2,0,2,30851,50000,5866,49535,0,0,0,0,0.00,0.00,0.00,0.00
2014-06-06 04:10:00,2,42221,0,0.00,2,2,0,2,28974,50000,6348,42800,0,0,0,0,0.00,0.00,0.00,0.00
2014-06-06 04:20:00,1,48213,0,0.00,0,2,1,0,40371,50000,3006,50000,0,0,0,0,0.00,0.00,0.00,0.00
2014-06-06 04:30:00,0,47882,0,0.00,0,0,0,0,43925,50000,2094,48040,0,0,0,0,0.00,0.00,0.00,0.00
2014-06-06 04:40:00,0,47689,0,0.00,0,0,0,0,42194,50000,2779,48748,0,0,0,0,0.00,0.00,0.00,0.00
2014-06-06 04:50:00,1,47047,0,0.00,0,2,1,0,35393,50000,4222,48302,0,0,0,0,0.00,0.00,0.00,0.00
2014-06-06 05:00:00,2,42542,0,0.00,2,2,0,2,38397,50000,3196,42032,0,0,0,0,0.00,0.00,0.00,0.00
2014-06-06 05:10:00,2,49590,0,0.00,0,2,1,2,45901,50000,1230,50000,0,0,0,0,0.00,0.00,0.00,0.00
2014-06-06 05:20:00,0,47988,0,0.00,0,0,0,0,44484,50000,2110,48382,0,0,0,0,0.00,0.00,0.00,0.00
2014-06-06 05:30:00,0,48722,0,0.00,0,0,0,0,42823,50000,2356,50000,0,0,0,0,0.00,0.00,0.00,0.00
2014-06-06 05:40:00,0,49895,0,0.00,0,0,0,0,49473,50000,210,50000,0,0,0,0,0.00,0.00,0.00,0.00
2014-06-06 05:50:00,0,49626,0,0.00,0,0,0,0,48404,50000,612,50000,0,0,0,0,0.00,0.00,0.00,0.00
2014-06-06 06:00:00,0,46874,0,0.00,0,0,0,0,39063,50000,4019,50000,0,0,0,0,0.00,0.00,0.00,0.00
2014-06-06 06:10:00,0,47698,0,0.00,0,0,0,0,39959,50000,3905,50000,0,0,0,0,0.00,0.00,0.00,0.00
2014-06-06 06:20:00,0,49860,0,0.00,0,0,0,0,48601,50000,420,50000,0,0,0,0,0.00,0.00,0.00,0.00
2014-06-06 06:30:00,0,48999,0,0.00,0,0,0,0,44198,50000,1959,50000,0,0,0,0,0.00,0.00,0.00,0.00
2014-06-06 06:40:00,0,45861,0,0.00,0,0,0,0,41218,50000,3203,45886,0,0,0,0,0.00,0.00,0.00,0.00
2014-06-06 06:50:00,0,48482,0,0.00,0,0,0,0,42233,50000,2552,50000,0,0,0,0,0.00,0.00,0.00,0.00
2014-06-06 07:00:00,0,48787,0,0.00,0,0,0,0,44152,50000,2135,50000,0,0,0,0,0.00,0.00,0.00,0.00
2014-06-06 07:10:00,0,49315,0,0.00,0,0,0,0,46804,50000,1131,50000,0,0,0,0,0.00,0.00,0.00,0.00
2014-06-06 07:20:00,0,47334,0,0.00,0,0,0,0,37462,50000,4866,50000,0,0,0,0,0.00,0.00,0.00,0.00
2014-06-06 07:30:00,0,47180,0,0.00,0,0,0,0,40355,50000,3543,48096,0,0,0,0,0.00,0.00,0.00,0.00
2014-06-06 07:40:00,0,49141,0,0.00,0,0,0,0,47421,50000,932,49346,0,0,0,0,0.00,0.00,0.00,0.00
2014-06-06 07:50:00,0,45686,0,0.00,0,0,0,0,30161,50000,6469,49698,0,0,0,0,0.00,0.00,0.00,0.00
2014-06-06 08:00:00,0,49753,0,0.00,0,0,0,0,48904,50000,430,50000,0,0,0,0,0.00,0.00,0.00,0.00
2014-06-06 08:10:00,0,49528,0,0.00,0,0,0,0,47504,50000,947,50000,0,0,0,0,0.00,0.00,0.00,0.00
2014-06-06 08:20:00,0,49229,0,0.00,0,0,0,0,45215,50000,1597,50000,0,0,0,0,0.00,0.00,0.00,0.00
2014-06-06 08:30:00,0,46402,0,0.00,0,0,0,0,32362,50000,5764,50000,0,0,0,0,0.00,0.00,0.00,0.00
2014-06-06 08:40:00,0,49635,0,0.00,0,0,0,0,47287,50000,831,50000,0,0,0,0,0.00,0.00,0.00,0.00
2014-06-06 08:50:00,0,48754,0,0.00,0,0,0,0,41187,50000,2640,50000,0,0,0,0,0.00,0.00,0.00,0.00
2014-06-06 09:00:00,0,48213,0,0.00,0,0,0,0,38486,50000,3399,50000,0,0,0,0,0.00,0.00,0.00,0.00
2014-06-06 09:10:00,0,46716,0,0.00,0,0,0,0,36831,50000,4794,48920,0,0,0,0,0.00,0.00,0.00,0.00
2014-06-06 09:20:00,0,49883,0,0.00,0,0,0,0,49229,50000,248,50000,0,0,0,0,0.00,0.00,0.00,0.00
2014-06-06 09:30:00,0,49635,0,0.00,0,0,0,0,47919,50000,740,50000,0,0,0,0,0.00,0.00,0.00,0.00
2014-06-06 09:40:00,0,48008,0,0.00,0,0,0,0,44568,50000,2013,48657,0,0,0,0,0.00,0.00,0.00,0.00
2014-06-06 09:50:00,0,49210,0,0.00,0,0,0,0,44507,50000,1633,50000,0,0,0,0,0.00,0.00,0.00,0.00
2014-06-06 10:00:00,0,47611,0,0.00,0,0,0,0,37818,50000,3576,49119,0,0,0,0,0.00,0.00,0.00,0.00
2014-06-06 10:10:00,0,45827,0,0.00,0,0,0,0,35865,50000,4814,48313,0,0,0,0,0.00,0.00,0.00,0.00
2014-06-06 10:20:00,0,49091,0,0.00,0,0,0,0,46748,50000,1317,50000,0,0,0,0,0.00,0.00,0.00,0.00
2014-06-06 10:30:00,0,48320,0,0.00,0,0,0,0,40598,50000,2907,50000,0,0,0,0,0.00,0.00,0.00,0.00
2014-06-06 10:40:00,0,48463,0,0.00,0,0,0,0,41641,50000,2686,50000,0,0,0,0,0.00,0.00,0.00,0.00
2014-06-06 10:50:00,1,45944,0,0.00,0,2,1,2,32501,50000,6240,49156,0,0,0,0,0.00,0.00,0.00,0.00
2014-06-06 11:00:00,2,45382,0,0.00,2,2,0,2,28696,50000,6835,49138,0,0,0,0,0.00,0.00,0.00,0.00
2014-06-06 11:10:00,2,34237,0,0.00,2,2,0,2,19957,42883,7865,38014,0,0,0,0,0.00,0.00,0.00,0.00
2014-06-06 11:20:00,2,42155,0,0.00,2,2,0,2,25166,50000,8765,45216,0,0,0,0,0.00,0.00,0.00,0.00
2014-06-06 11:30:00,2,38120,0,0.00,2,2,0,2,24928,50000,7793,39404,0,0,0,0,0.00,0.00,0.00,0.00
2014-06-06 11:40:00,2,27508,0,0.00,1,2,0,2,17584,48225,10003,23204,0,0,0,0,0.00,0.00,0.00,0.00
2014-06-06 11:50:00,2,39978,0,0.00,2,2,0,2,26801,50000,8123,41627,0,0,0,0,0.00,0.00,0.00,0.00
2014-06-06 12:00:00,2,44040,0,0.00,2,2,0,2,38390,47941,3328,45023,0,0,0,0,0.00,0.00,0.00,0.00
2014-06-06 12:10:00,2,46174,0,0.00,2,2,0,2,36995,50000,4319,47081,0,0,0,0,0.00,0.00,0.00,0.00
2014-06-06 12:20:00,0,46107,0,0.00,0,0,0,0,33825,50000,5216,48635,0,0,0,0,0.00,0.00,0.00,0.00
2014-06-06 12:30:00,0,47377,0,0.00,0,0,0,0,42352,50000,2492,47804,0,0,0,0,0.00,0.00,0.00,0.00
2014-06-06 12:40:00,0,49635,0,0.00,0,0,0,0,46354,50000,1094,50000,0,0,0,0,0.00,0.00,0.00,0.00
2014-06-06 12:50:00,0,48358,0,0.00,0,0,0,0,41750,50000,2432,49352,0,0,0,0,0.00,0.00,0.00,0.00
2014-06-06 13:00:00,0,50000,0,0.00,0,0,0,0,50000,50000,0,50000,0,0,0,0,0.00,0.00,0.00,0.00
2014-06-06 13:10:00,0,50000,0,0.00,0,0,0,0,50000,50000,0,50000,0,0,0,0,0.00,0.00,0.00,0.00
2014-06-06 13:20:00,0,50000,0,0.00,0,0,0,0,50000,50000,0,50000,0,0,0,0,0.00,0.00,0.00,0.00
2014-06-06 13:30:00,0,49709,0,0.00,0,0,0,0,47089,50000,873,50000,0,0,0,0,0.00,0.00,0.00,0.00
2014-06-06 13:40:00,0,50000,0,0.00,0,0,0,0,50000,50000,0,50000,0,0,0,0,0.00,0.00,0.00,0.00
2014-06-06 13:50:00,0,49839,0,0.00,0,0,0,0,48543,50000,434,50000,0,0,0,0,0.00,0.00,0.00,0.00
2014-06-06 14:00:00,0,49628,0,0.00,0,0,0,0,46430,50000,1067,50000,0,0,0,0,0.00,0.00,0.00,0.00
2014-06-06 14:10:00,0,49892,0,0.00,0,0,0,0,48919,50000,324,50000,0,0,0,0,0.00,0.00,0.00,0.00
2014-06-06 14:20:00,0,49940,0,0.00,0,0,0,0,49396,50000,181,50000,0,0,0,0,0.00,0.00,0.00,0.00
2014-06-06 14:30:00,0,50000,0,0.00,0,0,0,0,50000,50000,0,50000,0,0,0,0,0.00,0.00,0.00,0.00
2014-06-06 14:40:00,0,50000,0,0.00,0,0,0,0,50000,50000,0,50000,0,0,0,0,0.00,0.00,0.00,0.00
2014-06-06 14:50:00,0,49925,0,0.00,0,0,0,0,49254,50000,224,50000,0,0,0,0,0.00,0.00,0.00,0.00
2014-06-06 15:00:00,0,50000,0,0.00,0,0,0,0,50000,50000,0,50000,0,0,0,0,0.00,0.00,0.00,0.00
2014-06-06 15:10:00,0,49867,0,0.00,0,0,0,0,48667,50000,400,50000,0,0,0,0,0.00,0.00,0.00,0.00
2014-06-06 15:20:00,0,50000,0,0.00,0,0,0,0,50000,50000,0,50000,0,0,0,0,0.00,0.00,0.00,0.00
2014-06-06 15:30:00,0,50000,0,0.00,0,0,0,0,50000,50000,0,50000,0,0,0,0,0.00,0.00,0.00,0.00
2014-06-06 15:40:00,0,49966,0,0.00,0,0,0,0,49662,50000,101,50000,0,0,0,0,0.00,0.00,0.00,0.00
2014-06-06 15:50:00,0,50000,0,0.00,0,0,0,0,50000,50000,0,50000,0,0,0,0,0.00,0.00,0.00,0.00
2014-06-06 16:00:00,0,49990,0,0.00,0,0,0,0,49895,50000,32,50000,0,0,0,0,0.00,0.00,0.00,0.00
2014-06-06 16:10:00,0,49937,0,0.00,0,0,0,0,49372,50000,188,50000,0,0,0,0,0.00,0.00,0.00,0.00
2014-06-06 16:20:00,0,49560,0,0.00,0,0,0,0,46209,50000,1124,50000,0,0,0,0,0.00,0.00,0.00,0.00
2014-06-06 16:30:00,0,50000,0,0.00,0,0,0,0,50000,50000,0,50000,0,0,0,0,0.00,0.00,0.00,0.00
2014-06-06 16:40:00,0,50000,0,0.00,0,0,0,0,50000,50000,0,50000,0,0,0,0,0.00,0.00,0.00,0.00
2014-06-06 16:50:00,0,50000,0,0.00,0,0,0,0,50000,50000,0,50000,0,0,0,0,0.00,0.00,0.00,0.00
2014-06-06 17:00:00,0,50000,0,0.00,0,0,0,0,50000,50000,0,50000,0,0,0,0,0.00,0.00,0.00,0.00
2014-06-06 17:10:00,0,50000,0,0.00,0,0,0,0,50000,50000,0,50000,0,0,0,0,0.00,0.00,0.00,0.00
2014-06-06 17:20:00,0,50000,0,0.00,0,0,0,0,50000,50000,0,50000,0,0,0,0,0.00,0.00,0.00,0.00
2014-06-06 17:30:00,0,49944,0,0.00,0,0,0,0,49444,50000,167,50000,0,0,0,0,0.00,0.00,0.00,0.00
2014-06-06 17:40:00,0,50000,0,0.00,0,0,0,0,50000,50000,0,50000,0,0,0,0,0.00,0.00,0.00,0.00
2014-06-06 17:50:00,0,50000,0,0.00,0,0,0,0,50000,50000,0,50000,0,0,0,0,0.00,0.00,0.00,0.00
2014-06-06 18:00:00,0,50000,0,0.00,0,0,0,0,50000,50000,0,50000,0,0,0,0,0.00,0.00,0.00,0.00
2014-06-06 18:10:00,0,49812,0,0.00,0,0,0,0,48484,50000,456,50000,0,0,0,0,0.00,0.00,0.00,0.00
2014-06-06 18:20:00,0,49930,0,0.00,0,0,0,0,49304,50000,209,50000,0,0,0,0,0.00,0.00,0.00,0.00
2014-06-06 18:30:00,0,50000,0,0.00,0,0,0,0,50000,50000,0,50000,0,0,0,0,0.00,0.00,0.00,0.00
2014-06-06 18:40:00,0,49887,0,0.00,0,0,0,0,48868,50000,340,50000,0,0,0,0,0.00,0.00,0.00,0.00
2014-06-06 18:50:00,0,50000,0,0.00,0,0,0,0,50000,50000,0,50000,0,0,0,0,0.00,0.00,0.00,0.00
2014-06-06 19:00:00,0,49291,0,0.00,0,0,0,0,43715,50000,1874,50000,0,0,0,0,0.00,0.00,0.00,0.00
2014-06-06 19:10:00,0,49686,0,0.00,0,0,0,0,47930,50000,631,50000,0,0,0,0,0.00,0.00,0.00,0.00
2014-06-06 19:20:00,0,45851,0,0.00,0,0,0,0,31301,50000,7099,50000,0,0,0,0,0.00,0.00,0.00,0.00
2014-06-06 19:30:00,0,49134,0,0.00,0,0,0,0,43486,50000,1969,50000,0,0,0,0,0.00,0.00,0.00,0.00
2014-06-06 19:40:00,0,49330,0,0.00,0,0,0,0,46655,50000,1177,50000,0,0,0,0,0.00,0.00,0.00,0.00
2014-06-06 19:50:00,0,49949,0,0.00,0,0,0,0,49487,50000,154,50000,0,0,0,0,0.00,0.00,0.00,0.00
2014-06-06 20:00:00,0,49498,0,0.00,0,0,0,0,46936,50000,1034,50000,0,0,0,0,0.00,0.00,0.00,0.00
2014-06-06 20:10:00,0,48804,0,0.00,0,0,0,0,44239,50000,2111,50000,0,0,0,0,0.00,0.00,0.00,0.00
2014-06-06 20:20:00,0,49745,0,0.00,0,0,0,0,47448,50000,766,50000,0,0,0,0,0.00,0.00,0.00,0.00
2014-06-06 20:30:00,0,49183,0,0.00,0,0,0,0,45704,50000,1377,50000,0,0,0,0,0.00,0.00,0.00,0.00
2014-06-06 20:40:00,0,48359,0,0.00,0,0,0,0,44128,50000,2276,49930,0,0,0,0,0.00,0.00,0.00,0.00
2014-06-06 20:50:00,0,49466,0,0.00,0,0,0,0,45645,50000,1307,50000,0,0,0,0,0.00,0.00,0.00,0.00
2014-06-06 21:00:00,0,46826,0,0.00,0,0,0,0,41358,50000,3290,47584,0,0,0,0,0.00,0.00,0.00,0.00
2014-06-06 21:10:00,0,46837,0,0.00,0,0,0,0,34931,50000,4360,48095,0,0,0,0,0.00,0.00,0.00,0.00
2014-06-06 21:20:00,0,48755,0,0.00,0,0,0,0,42816,50000,2264,50000,0,0,0,0,0.00,0.00,0.00,0.00
2014-06-06 21:30:00,0,46855,0,0.00,0,0,0,0,41534,50000,2872,47680,0,0,0,0,0.00,0.00,0.00,0.00
2014-06-06 21:40:00,0,47603,0,0.00,0,0,0,0,38646,50000,3732,49812,0,0,0,0,0.00,0.00,0.00,0.00
2014-06-06 21:50:00,0,48846,0,0.00,0,0,0,0,45554,50000,1687,50000,0,0,0,0,0.00,0.00,0.00,0.00
2014-06-06 22:00:00,0,49375,0,0.00,0,0,0,0,46079,50000,1299,50000,0,0,0,0,0.00,0.00,0.00,0.00
2014-06-06 22:10:00,0,48257,0,0.00,0,0,0,0,36357,50000,4014,50000,0,0,0,0,0.00,0.00,0.00,0.00
2014-06-06 22:20:00,0,48117,0,0.00,0,0,0,0,40120,50000,2895,49486,0,0,0,0,0.00,0.00,0.00,0.00
2014-06-06 22:30:00,0,46965,0,0.00,0,0,0,0,38104,50000,3800,48966,0,0,0,0,0.00,0.00,0.00,0.00
2014-06-06 22:40:00,0,48027,0,0.00,0,0,0,0,44896,50000,2117,48768,0,0,0,0,0.00,0.00,0.00,0.00
2014-06-06 22:50:00,0,44958,0,0.00,0,0,0,0,35689,50000,5818,48352,0,0,0,0,0.00,0.00,0.00,0.00
2014-06-06 23:00:00,0,45202,0,0.00,0,0,0,0,35591,50000,3995,46536,0,0,0,0,0.00,0.00,0.00,0.00
2014-06-06 23:10:00,0,43655,0,0.00,0,0,0,0,27112,50000,7544,46324,0,0,0,0,0.00,0.00,0.00,0.00
2014-06-06 23:20:00,0,46294,0,0.00,0,0,0,0,32405,50000,6256,50000,0,0,0,0,0.00,0.00,0.00,0.00
2014-06-06 23:30:00,0,40276,0,0.00,0,0,0,0,33553,49418,4583,39734,0,0,0,0,0.00,0.00,0.00,0.00
2014-06-06 23:40:00,0,47445,0,0.00,0,0,0,0,35393,50000,4859,50000,0,0,0,0,0.00,0.00,0.00,0.00
2014-06-06 23:50:00,0,45677,0,0.00,0,0,0,0,30535,50000,7187,49760,0,0,0,0,0.00,0.00,0.00,0.00
